Weather History for Appleton, WI

Change the Weather History Date:

Sunday, February 23, 2014

  Actual Average Record
Temperature  
Mean Temperature 12 °F -  
Max Temperature 21 °F 34 °F 52 °F (1984)
Min Temperature 3 °F 17 °F -6 °F (1967)
Degree Days  
Heating Degree Days 53    
Moisture  
Dew Point 1 °F    
Average Humidity 65    
Maximum Humidity 78    
Minimum Humidity 46    
Precipitation  
Precipitation 0.00 in - - ()
Sea Level Pressure  
Sea Level Pressure 30.04 in    
Wind  
Wind Speed 16 mph (West)    
Max Wind Speed 28 mph    
Max Gust Speed 34 mph    
Visibility 10 miles    
Events      
Averages and records for this station are not official NWS values.
T = Trace of Precipitation, MM = Missing Value Source: NWS Daily Summary

Daily Weather History Graph

Daily Weather History Graph

Search for Another Location

Airport:

Trip Planner

Search our weather history database for the weather conditions in past years. The results will help you decide how hot, cold, wet, or windy it might be!

Date:

Astronomy

Feb. 23, 2014 Rise Set
Actual Time 6:41 AM CST 5:34 PM CST
Civil Twilight 6:11 AM CST 6:03 PM CST
Nautical Twilight 5:38 AM CST 6:37 PM CST
Astronomical Twilight 5:04 AM CST 7:10 PM CST
Moon 1:45 AM CST (2/23) 11:29 AM CST (2/23)
Length of Visible Light 11h 51m
Length of Day
10h 53m
Last Quarter, 38% of the Moon is Illuminated
Feb 23
Last Quarter
Mar 1
New
Mar 8
First Quarter
Mar 16
Full
Mar 23
Last Quarter

Hourly Weather History & Observations

Time (CST) Temp. Windchill Dew Point Humidity Pressure Visibility Wind Dir Wind Speed Gust Speed Precip Events Conditions
12:15 AM 10.4 °F -6.0 °F 3.2 °F 73% 30.00 in 10.0 mi West 15.0 mph - N/A   Clear
12:30 AM 10.4 °F -6.0 °F 3.2 °F 73% 30.00 in 10.0 mi West 15.0 mph 20.7 mph N/A   Clear
12:55 AM 10.4 °F -6.0 °F 3.2 °F 73% 30.00 in 10.0 mi West 15.0 mph 19.6 mph N/A   Clear
1:15 AM 10.4 °F -6.0 °F 1.4 °F 67% 30.00 in 10.0 mi West 15.0 mph - N/A   Clear
1:35 AM 10.4 °F -7.2 °F 1.4 °F 67% 30.00 in 10.0 mi West 17.3 mph - N/A   Clear
1:55 AM 8.6 °F -9.5 °F 1.4 °F 73% 30.00 in 10.0 mi West 17.3 mph - N/A   Clear
2:15 AM 8.6 °F -8.3 °F 1.4 °F 73% 30.00 in 10.0 mi West 15.0 mph - N/A   Clear
2:35 AM 8.6 °F -8.9 °F 1.4 °F 73% 30.00 in 10.0 mi West 16.1 mph - N/A   Clear
2:55 AM 8.6 °F -8.3 °F -0.4 °F 67% 30.00 in 10.0 mi West 15.0 mph - N/A   Clear
3:15 AM 8.6 °F -8.3 °F -0.4 °F 67% 30.01 in 10.0 mi West 15.0 mph - N/A   Clear
3:35 AM 8.6 °F -7.7 °F -0.4 °F 67% 30.01 in 10.0 mi West 13.8 mph 18.4 mph N/A   Clear
3:55 AM 6.8 °F -10.0 °F -0.4 °F 72% 30.01 in 10.0 mi West 13.8 mph - N/A   Clear
4:15 AM 6.8 °F -11.3 °F -0.4 °F 72% 30.02 in 10.0 mi West 16.1 mph 19.6 mph N/A   Clear
4:35 AM 6.8 °F -10.7 °F -0.4 °F 72% 30.02 in 10.0 mi West 15.0 mph - N/A   Clear
4:55 AM 6.8 °F -11.3 °F -0.4 °F 72% 30.03 in 10.0 mi West 16.1 mph - N/A   Clear
5:15 AM 5.0 °F -13.0 °F -0.4 °F 78% 30.03 in 10.0 mi West 15.0 mph - N/A   Clear
5:20 AM 5.0 °F -13.6 °F -2.2 °F 72% 30.03 in 10.0 mi West 16.1 mph - N/A   Clear
5:45 AM 5.0 °F -13.6 °F -2.2 °F 72% 30.05 in 10.0 mi West 16.1 mph 20.7 mph N/A   Clear
6:45 AM 3.2 °F -14.6 °F -2.2 °F 78% 30.07 in 10.0 mi West 13.8 mph 18.4 mph N/A   Scattered Clouds
7:45 AM 5.0 °F -13.6 °F -2.2 °F 72% 30.07 in 10.0 mi West 16.1 mph 20.7 mph N/A   Clear
8:45 AM 8.6 °F -9.5 °F -2.2 °F 62% 30.07 in 10.0 mi West 17.3 mph 24.2 mph N/A   Clear
9:45 AM 10.4 °F -7.2 °F -0.4 °F 62% 30.07 in 10.0 mi West 17.3 mph 23.0 mph N/A   Clear
10:45 AM 14.0 °F -4.3 °F -0.4 °F 53% 30.07 in 10.0 mi West 21.9 mph 27.6 mph N/A   Clear
11:45 AM 17.6 °F 0.5 °F 1.4 °F 49% 30.07 in 10.0 mi West 21.9 mph 29.9 mph N/A   Clear
12:45 PM 17.6 °F -1.3 °F 1.4 °F 49% 30.05 in 10.0 mi West 27.6 mph 34.5 mph N/A   Clear
1:45 PM 21.2 °F 6.8 °F 3.2 °F 46% 30.04 in 10.0 mi West 17.3 mph 29.9 mph N/A   Clear
2:45 PM 21.2 °F 6.4 °F 5.0 °F 50% 30.03 in 10.0 mi West 18.4 mph 27.6 mph N/A   Clear
3:45 PM 21.2 °F 4.5 °F 3.2 °F 46% 30.02 in 10.0 mi West 24.2 mph 29.9 mph N/A   Clear
4:45 PM 21.2 °F 5.6 °F 3.2 °F 46% 30.03 in 10.0 mi West 20.7 mph 27.6 mph N/A   Clear
5:45 PM 17.6 °F 1.7 °F 3.2 °F 53% 30.05 in 10.0 mi West 18.4 mph 28.8 mph N/A   Clear
6:45 PM 15.8 °F -1.9 °F 3.2 °F 58% 30.07 in 10.0 mi West 21.9 mph 28.8 mph N/A   Clear
7:45 PM 14.0 °F -2.0 °F 3.2 °F 62% 30.09 in 10.0 mi West 16.1 mph 24.2 mph N/A   Clear
8:45 PM 12.2 °F -4.3 °F 3.2 °F 67% 30.09 in 10.0 mi West 16.1 mph 24.2 mph N/A   Clear
9:45 PM 12.2 °F -4.3 °F 3.2 °F 67% 30.09 in 10.0 mi West 16.1 mph - N/A   Clear
10:45 PM 10.4 °F -4.8 °F 1.4 °F 67% 30.09 in 10.0 mi West 12.7 mph - N/A   Clear
11:15 PM 10.4 °F -4.8 °F 3.2 °F 73% 30.09 in 10.0 mi West 12.7 mph 18.4 mph N/A   Clear
11:35 PM 10.4 °F -4.1 °F 1.4 °F 67% 30.10 in 10.0 mi West 11.5 mph - N/A   Clear
11:55 PM 10.4 °F -3.3 °F 1.4 °F 67% 30.10 in 10.0 mi West 10.4 mph - N/A   Clear